OpenBCM V1.13 (Linux)

Packet Radio Mailbox

DB0FHN

[JN59NK Nuernberg]

 Login: GUEST





  
LU1HVK > KEP      29.09.19 08:34l 252 Lines 12372 Bytes #999 (0) @ WW
BID : 32585_LU1HVK
Read: DF7EAV DJ6UX GUEST
Subj: TLE 29 09
Path: DB0FHN<DB0BLO<DB0ERF<IZ3LSV<I0OJJ<VE2PKT<N3HYM<N3DWB<LU9HGS<LU1HVK
Sent: 190929/0523Z 32585@LU1HVK.2594.CBA.ARG.SA LinBPQ6.0.19

>From lu1hvk%lu1hvk.2594.cba.arg.sa@i0ojj.ampr.org Sun Sep 29 07:25:47 2019
Received: from i0ojj.ampr.org by i0ojj.ampr.org (JNOS2.0k.3b2) with SMTP
	id AA27762 ; Sun, 29 Sep 2019 07:25:47 +0200
Message-Id: <32585_LU1HVK@ve2pkt.bbs>
>From: lu1hvk@lu1hvk.2594.cba.arg.sa
X-JNOS-User-Port: Telnet   (ve2pkt @ 144.172.216.109)  -> Sending message

                         _    _   _ _ _   ___     ___  __
                        | |  | | | / | | | \ \   / / |/ /
                        | |  | | | | | |_| |\ \ / /| ' /
                        | |__| |_| | |  _  | \ V / | . \
                        |_____\___/|_|_| |_|  \_/  |_|\_\

     BBS/NODO - CORDOBA (LEONES-FF87UH) - LU1HVK-4 NODO - LU1HVK-3 APRS

+----------------------------------------------------------------------------+
OSCAR 7
1  7530U 74089B   19271.85075181 -.00000044  00000-0  71821-5 0  9991
2  7530 101.7568 238.5079 0012202 148.2872 267.9139 12.53640078 53324
OSCAR 11 (UoSAT 2)
1 14781U 84021B   19271.64413213 +.00000092 +00000-0 +17375-4 0  9998
2 14781 097.6065 291.5134 0008228 355.3600 004.7537 14.83108463892871
OSCAR 19 (LUSAT)
1 20442U 90005G   19271.89579004 -.00000018 +00000-0 +99227-5 0  9992
2 20442 098.6557 213.7581 0011197 203.4693 156.5981 14.32933415550951
EYESAT A
1 22825U 93061C   19271.93091473 -.00000004 +00000-0 +16312-4 0  9996
2 22825 098.9116 262.9395 0009404 064.4862 295.7291 14.30067271356299
ITAMSAT
1 22826U 93061D   19271.90875384 +.00000000 +00000-0 +18047-4 0  9997
2 22826 098.9057 262.8953 0009821 054.1155 306.0937 14.30401350356515
RADIO ROSTO
1 23439U 94085A   19271.86485175 -.00000038 +00000-0 +11348-3 0  9993
2 23439 064.8164 310.8995 0145338 093.3572 268.3989 11.27568153019419
JAS 2
1 24278U 96046B   19271.88854049 -.00000037 +00000-0 +90217-6 0  9990
2 24278 098.5532 051.4989 0349879 335.2336 023.2351 13.53093574141370
TECHSAT 1B
1 25397U 98043D   19271.87810116 -.00000021 +00000-0 +10063-4 0  9990
2 25397 098.6950 210.8124 0002376 094.1566 265.9884 14.23671155102192
ISS (ZARYA)
1 25544U 98067A   19272.17332272  .00000706  00000-0  20336-4 0  9999
2 25544  51.6426 205.5801 0007437  95.6316 228.4969 15.50113298191385
PCSAT
1 26931U 01043C   19271.92480437 -.00000034 +00000-0 +18890-4 0  9994
2 26931 067.0497 099.8679 0007428 270.0580 089.9670 14.30553532939525
SAUDISAT 1C
1 27607U 02058C   19271.88591778 -.00000004 +00000-0 +20224-4 0  9999
2 27607 064.5538 097.1482 0076190 236.6865 122.6926 14.75574041901988
CUTE-1
1 27844U 03031E   19271.87722861 +.00000049 +00000-0 +41704-4 0  9996
2 27844 098.6856 278.5673 0010986 095.0202 265.2230 14.22196396842770
CUBESAT XI 4
1 27848U 03031J   19271.54664415 +.00000038 +00000-0 +36991-4 0  9994
2 27848 098.6931 278.7628 0010833 106.3522 253.8847 14.21789244842587
MOZHAYETS 4
1 27939U 03042A   19271.82749345  .00000085  00000-0  23779-4 0  9996
2 27939  98.0548  45.7373 0014189 103.6046 256.6745 14.66805530855515
CUBESAT XI 5
1 28895U 05043F   19271.91447788 +.00000114 +00000-0 +30798-4 0  9999
2 28895 097.9741 051.2277 0017439 033.2213 327.0081 14.63693901742201
CUTE-1.7+APD II
1 32785U 08021C   19271.80948041 +.00000217 +00000-0 +29070-4 0  9992
2 32785 097.5552 266.7345 0011587 286.6896 073.3050 14.88348961618803
DELFI C3
1 32789U 08021G   19271.73699197 +.00001604 +00000-0 +11059-3 0  9991
2 32789 097.4551 318.2792 0013509 132.0744 228.1636 15.07134221622232
SEEDS
1 32791U 08021J   19271.65566146 +.00000214 +00000-0 +27050-4 0  9997
2 32791 097.5313 272.6557 0011768 257.0436 102.9468 14.90875196619226
YUBELEINY
1 32953U 08025A   19271.93953427 +.00000020 +00000-0 +75656-4 0  9994
2 32953 082.4977 081.1708 0018651 266.5866 093.3086 12.43091185515011
PRISM (HITOMI)
1 33493U 09002B   19271.74990321  .00001115  00000-0  10292-3 0  9993
2 33493  98.1212 196.5738 0014285 199.6536 160.4135 14.96743688580419
KKS-1 (KISEKI)
1 33499U 09002H   19271.87409807 +.00000076 +00000-0 +19290-4 0  9990
2 33499 098.3432 113.8123 0008021 237.5774 122.4658 14.75464648573860
SWISSCUBE
1 35932U 09051B   19271.69613085 +.00000119 +00000-0 +38016-4 0  9998
2 35932 098.5979 080.7169 0007094 205.1469 154.9383 14.56312432531585
BEESAT
1 35933U 09051C   19271.41816829 +.00000095 +00000-0 +32351-4 0  9999
2 35933 098.5997 082.2318 0005062 218.1331 141.9508 14.56397964531616
ITUPSAT 1
1 35935U 09051E   19271.67209705 +.00000087 +00000-0 +31278-4 0  9996
2 35935 098.6107 082.7236 0007393 217.4535 142.6147 14.55554203531441
XIWANG-1 (HOPE-1)
1 36122U 09072B   19271.73398705 -.00000021  00000-0  54267-4 0  9996
2 36122 100.0771 269.3318 0007851 106.0712 254.1269 13.16351375470300
TISAT 1
1 36799U 10035E   19271.68066766 +.00000251 +00000-0 +31422-4 0  9992
2 36799 098.1690 067.2994 0013573 109.8838 250.3843 14.91162877499768
JUGNU
1 37839U 11058B   19271.51600866  .00000306  00000-0  21425-4 0  9994
2 37839  19.9616  77.2967 0019039   9.7614  26.6532 14.12659276411677
SRMSAT
1 37841U 11058D   19271.02529147  .00000309  00000-0  24676-4 0  9999
2 37841  19.9714 139.1451 0011843 229.4444 275.4515 14.10639698411019
M-CUBED/EXP-1 PRIME
1 37855U 11061F   19271.81360406 +.00001403 +00000-0 +77460-4 0  9991
2 37855 101.7133 219.8330 0173069 133.9780 227.5853 15.05598938431675
HORYU 2
1 38340U 12025D   19271.89100705 +.00000173 +00000-0 +33311-4 0  9994
2 38340 098.3201 313.5003 0012144 153.2009 206.9829 14.75752442385823
STRAND 1
1 39090U 13009E   19271.51057071 +.00000044 +00000-0 +30536-4 0  9999
2 39090 098.4791 115.7196 0009069 353.9868 006.1207 14.35098422344978
SOMP
1 39134U 13015E   19271.78511992  .00001651  00000-0  83789-4 0  9994
2 39134  64.8637  49.6284 0035974 287.1394  72.5796 15.20345635356117
BEESAT 3
1 39135U 13015F   19271.82328524 +.00001090 +00000-0 +63197-4 0  9995
2 39135 064.8681 069.2528 0034621 296.0895 063.6669 15.17616557355354
BEESAT 2
1 39136U 13015G   19271.89919838 +.00000961 +00000-0 +58023-4 0  9995
2 39136 064.8687 073.1229 0026405 301.5997 058.2551 15.17035987355283
CUBEBUG 1
1 39153U 13018D   19271.81216481  .00000215  00000-0  34980-4 0  9991
2 39153  97.9808   9.3772 0016014 224.1185 135.8750 14.80599048346928
ZACUBE
1 39417U 13066B   19271.91950913 +.00000229 +00000-0 +34962-4 0  9998
2 39417 097.5628 279.6767 0060261 059.6379 301.0774 14.81152370316173
TRITON 1
1 39427U 13066M   19271.91128677 +.00000165 +00000-0 +34357-4 0  9990
2 39427 097.6883 243.0364 0113232 197.5286 162.1999 14.67882535313148
GOMX 1
1 39430U 13066Q   19271.78969499  .00000148  00000-0  36199-4 0  9991
2 39430  97.7569 221.6673 0150158 292.7597  65.7797 14.59288942311493
HUMSAT D
1 39433U 13066T   19271.67274096  .00000611  00000-0  64778-4 0  9993
2 39433  97.5441 314.9599 0029715 322.6447  37.2706 14.92256543318284
CUBEBUG 2
1 39440U 13066AA  19271.92289233 +.00000208 +00000-0 +35620-4 0  9994
2 39440 097.6087 264.3556 0081617 112.4387 248.5494 14.75889467313854
FUNCUBE 1
1 39444U 13066AE  19271.93092444 +.00000287 +00000-0 +41497-4 0  9991
2 39444 097.5602 281.7300 0059301 053.1659 307.4973 14.81978958314486
UWE-3
1 39446U 13066AG  19271.88729894 +.00000231 +00000-0 +37081-4 0  9996
2 39446 097.5850 271.4476 0071561 086.6479 274.2915 14.78424719313771
SPROUT
1 39770U 14029E   19271.88720584 +.00000604 +00000-0 +72746-4 0  9994
2 39770 097.8874 014.5425 0009837 107.4706 252.7558 14.87434531290021
UNISAT 6
1 40012U 14033C   19271.77362202 +.00000188 +00000-0 +35157-4 0  9999
2 40012 097.7427 133.9157 0059365 127.5645 233.0977 14.74010323283720
DUCHIFAT 1
1 40021U 14033M   19271.84382987 +.00000335 +00000-0 +40005-4 0  9991
2 40021 097.9235 196.7753 0014394 074.4481 285.8325 14.90689123286766
QB50P1
1 40025U 14033R   19271.78021617  .00000322  00000-0  40189-4 0  9997
2 40025  97.9032 191.2882 0013918  83.9021 276.3781 14.88987435286512
CHUBUSAT 1
1 40300U 14070C   19271.82851846  .00000475  00000-0  23562-4 0  9999
2 40300  97.3184 343.3919 0021147  57.7259  79.6921 15.22179566271551
NUDT-PHONESAT
1 40900U 15049B   19271.79805556  .00001543  00000-0  68406-4 0  9998
2 40900  97.4382 280.1477 0012544 179.1064 175.8886 15.23067239223199
ZDPS 2A
1 40901U 15049C   19271.92500961 +.00000692 +00000-0 +37468-4 0  9994
2 40901 097.4621 276.2844 0012433 201.4185 218.3973 15.17844106222749
ZDPS 2B
1 40902U 15049D   19271.77472399  .00000688  00000-0  37446-4 0  9992
2 40902  97.4570 273.5503 0012520 199.5638 280.2991 15.17697633222695
XW-2A
1 40903U 15049E   19271.85644653  .00001612  00000-0  39560-4 0  9993
2 40903  97.3288 315.1570 0014614 130.1632 315.4047 15.42119125225991
KAITUO 1A
1 40904U 15049F   19271.81955291  .00000498  00000-0  29830-4 0  9993
2 40904  97.4705 272.0989 0013503 209.3643 252.9135 15.15441489222462
OBJECT G
1 40905U 15049G   19271.77138410  .00000047  00000-0  61244-5 0  9991
2 40905  97.4757 269.4971 0014726 205.0938 241.2863 15.14346860222329
XW-2C
1 40906U 15049H   19271.80325438  .00000611  00000-0  35438-4 0  9996
2 40906  97.4715 272.2112 0013783 200.0644 284.0985 15.15761064222467
XW-2D
1 40907U 15049J   19271.88595318  .00000312  00000-0  19692-4 0  9993
2 40907  97.4694 271.9728 0013298 196.8975 210.3761 15.15953497222493
LILACSAT 2
1 40908U 15049K   19271.91556274 +.00000176 +00000-0 +13351-4 0  9990
2 40908 097.4828 270.7180 0014856 205.2285 242.0952 15.13853089222276
XW-2F
1 40910U 15049M   19271.88272573  .00000677  00000-0  37148-4 0  9992
2 40910  97.4656 274.1214 0014266 188.4550 221.9528 15.17431006222513
XW-2B
1 40911U 15049N   19271.86422617  .00000669  00000-0  38352-4 0  9996
2 40911  97.4712 272.6180 0013154 197.4689 247.3055 15.15884654222381
KAITUO 1B
1 40912U 15049P   19271.82990865  .00000800  00000-0  40548-4 0  9995
2 40912  97.4519 277.8716 0014991 169.9016 273.8925 15.19759230222821
